When you browse on this site, cookies collect data to enhance your experience and personalize the content and advertising you see.
Visit our Privacy Policy to learn more. By continuing to use the site, you agree to this use of cookies and data.
  • In Czech Republic
  • List of Countries
  • For 7 days
  • Water Temperature
  • Weather Map
  • Weather Widgets
  • user-avatar
    Login

    Hourly Weather San Jose de Miranda

    Today, 6 April, Monday

    Time Temperature Precipitation Wind Pressure Humidity
    00:00 +18°C° 0.2 mm 1 mps 591 mmHg 89%
    01:00 +16°C° 0 mm 1 mps 590 mmHg 90%
    02:00 +16°C° 0.5 mm 1 mps 590 mmHg 90%
    03:00 +16°C° 0.5 mm 1 mps 590 mmHg 89%
    04:00 +16°C° 0.5 mm 1 mps 589 mmHg 89%
    05:00 +16°C° 0.3 mm 1 mps 590 mmHg 88%
    06:00 +18°C° 0.3 mm 1 mps 591 mmHg 87%
    07:00 +18°C° 0.3 mm 1 mps 591 mmHg 86%
    08:00 +20°C° 0.2 mm 1 mps 592 mmHg 81%
    09:00 +22°C° 0.2 mm 1 mps 593 mmHg 76%
    10:00 +23°C° 0.2 mm 1 mps 594 mmHg 71%
    11:00 +24°C° 0.9 mm 1 mps 594 mmHg 71%
    12:00 +24°C° 0.9 mm 1 mps 593 mmHg 70%
    13:00 +24°C° 0.9 mm 1 mps 593 mmHg 70%
    14:00 +23°C° 1.7 mm 1 mps 592 mmHg 75%
    15:00 +22°C° 1.7 mm 1 mps 591 mmHg 80%
    16:00 +21°C° 1.7 mm 1 mps 590 mmHg 86%
    17:00 +20°C° 1.2 mm 1 mps 591 mmHg 87%
    18:00 +20°C° 1.2 mm 1 mps 591 mmHg 89%
    19:00 +19°C° 1.2 mm 1 mps 591 mmHg 90%
    20:00 +19°C° 0.3 mm 1 mps 591 mmHg 90%
    21:00 +19°C° 0.3 mm 1 mps 592 mmHg 89%
    22:00 +19°C° 0.3 mm 1 mps 592 mmHg 88%
    23:00 +18°C° 0.5 mm 1 mps 592 mmHg 89%

    Tomorrow, 7 April, Tuesday

    Time Temperature Precipitation Wind Pressure Humidity
    00:00 +18°C° 0.5 mm 1 mps 591 mmHg 89%
    01:00 +18°C° 0.5 mm 1 mps 591 mmHg 89%
    02:00 +18°C° 0.2 mm 1 mps 591 mmHg 89%
    03:00 +16°C° 0.2 mm 1 mps 590 mmHg 89%
    04:00 +16°C° 0.2 mm 1 mps 590 mmHg 89%
    05:00 +18°C° 0 mm 1 mps 591 mmHg 88%
    06:00 +18°C° 0 mm 1 mps 591 mmHg 86%
    07:00 +19°C° 0 mm 1 mps 592 mmHg 85%
    08:00 +20°C° 0.1 mm 1 mps 593 mmHg 80%
    09:00 +22°C° 0.1 mm 1 mps 594 mmHg 75%
    10:00 +23°C° 0.1 mm 1 mps 595 mmHg 70%
    11:00 +23°C° 0.9 mm 1 mps 594 mmHg 73%
    12:00 +23°C° 0.9 mm 1 mps 593 mmHg 75%
    13:00 +23°C° 0.9 mm 1 mps 592 mmHg 78%
    14:00 +23°C° 1.1 mm 1 mps 592 mmHg 79%
    15:00 +22°C° 1.1 mm 1 mps 591 mmHg 81%
    16:00 +22°C° 1.1 mm 1 mps 590 mmHg 83%
    17:00 +21°C° 1.2 mm 1 mps 590 mmHg 85%
    18:00 +20°C° 1.2 mm 1 mps 591 mmHg 88%
    19:00 +19°C° 1.2 mm 1 mps 591 mmHg 90%
    20:00 +19°C° 0.7 mm 1 mps 591 mmHg 90%
    21:00 +18°C° 0.7 mm 1 mps 591 mmHg 89%
    22:00 +18°C° 0.7 mm 1 mps 592 mmHg 88%
    23:00 +18°C° 0.2 mm 1 mps 591 mmHg 89%

    Day after tomorrow, 8 April, Wednesday

    Time Temperature Precipitation Wind Pressure Humidity
    00:00 +18°C° 0.2 mm 1 mps 590 mmHg 89%
    01:00 +16°C° 0.2 mm 1 mps 590 mmHg 89%
    02:00 +16°C° 0 mm 1 mps 589 mmHg 88%
    03:00 +16°C° 0 mm 1 mps 589 mmHg 87%
    04:00 +15°C° 0 mm 1 mps 589 mmHg 86%
    05:00 +16°C° 0 mm 1 mps 590 mmHg 85%
    06:00 +18°C° 0 mm 1 mps 590 mmHg 84%
    07:00 +18°C° 0 mm 1 mps 591 mmHg 83%
    08:00 +20°C° 0 mm 1 mps 592 mmHg 77%
    09:00 +22°C° 0 mm 1 mps 593 mmHg 71%
    10:00 +24°C° 0 mm 1 mps 594 mmHg 65%
    11:00 +24°C° 0.2 mm 1 mps 593 mmHg 65%
    12:00 +25°C° 0.2 mm 2 mps 593 mmHg 64%
    13:00 +25°C° 0.2 mm 2 mps 592 mmHg 64%
    14:00 +25°C° 1 mm 2 mps 592 mmHg 68%
    15:00 +24°C° 1 mm 1 mps 591 mmHg 73%
    16:00 +23°C° 1 mm 1 mps 590 mmHg 77%
    17:00 +22°C° 1.2 mm 1 mps 590 mmHg 81%
    18:00 +20°C° 1.2 mm 1 mps 590 mmHg 85%
    19:00 +19°C° 1.2 mm 1 mps 590 mmHg 89%
    20:00 +19°C° 0.5 mm 1 mps 590 mmHg 89%
    21:00 +18°C° 0.5 mm 1 mps 590 mmHg 88%
    22:00 +18°C° 0.5 mm 1 mps 590 mmHg 88%
    23:00 +17°C° 0.1 mm 2 mps 590 mmHg 87%

    9 April, Thursday

    Time Temperature Precipitation Wind Pressure Humidity
    00:00 +16°C° 0.1 mm 2 mps 589 mmHg 86%
    01:00 +16°C° 0.1 mm 2 mps 589 mmHg 85%
    02:00 +16°C° 0 mm 2 mps 589 mmHg 85%
    03:00 +15°C° 0 mm 2 mps 589 mmHg 85%
    04:00 +15°C° 0 mm 2 mps 588 mmHg 85%
    05:00 +15°C° 0 mm 2 mps 589 mmHg 84%
    06:00 +16°C° 0 mm 2 mps 590 mmHg 83%
    07:00 +17°C° 0 mm 2 mps 590 mmHg 82%
    08:00 +19°C° 0 mm 1 mps 591 mmHg 75%
    09:00 +21°C° 0 mm 1 mps 592 mmHg 68%
    10:00 +23°C° 0 mm 1 mps 593 mmHg 60%
    11:00 +24°C° 0.1 mm 1 mps 593 mmHg 60%
    12:00 +24°C° 0.1 mm 2 mps 592 mmHg 60%
    13:00 +25°C° 0.1 mm 2 mps 592 mmHg 60%
    14:00 +24°C° 1 mm 2 mps 591 mmHg 66%
    15:00 +23°C° 1 mm 1 mps 591 mmHg 72%
    16:00 +22°C° 1 mm 1 mps 590 mmHg 79%
    17:00 +21°C° 1.6 mm 1 mps 590 mmHg 82%
    18:00 +20°C° 1.6 mm 1 mps 590 mmHg 86%
    19:00 +18°C° 1.6 mm 1 mps 590 mmHg 89%
    20:00 +18°C° 0.2 mm 1 mps 590 mmHg 88%
    21:00 +16°C° 0.2 mm 1 mps 590 mmHg 87%
    22:00 +16°C° 0.2 mm 1 mps 590 mmHg 86%
    23:00 +16°C° 0 mm 1 mps 590 mmHg 84%

    10 April, Friday

    Time Temperature Precipitation Wind Pressure Humidity
    00:00 +15°C° 0 mm 1 mps 590 mmHg 83%
    01:00 +15°C° 0 mm 1 mps 589 mmHg 82%
    02:00 +15°C° 0 mm 1 mps 589 mmHg 80%
    03:00 +15°C° 0 mm 1 mps 589 mmHg 79%
    04:00 +15°C° 0 mm 1 mps 589 mmHg 77%
    05:00 +15°C° 0 mm 1 mps 589 mmHg 76%
    06:00 +16°C° 0 mm 1 mps 590 mmHg 76%
    07:00 +18°C° 0 mm 1 mps 591 mmHg 75%
    08:00 +19°C° 0 mm 1 mps 592 mmHg 69%
    09:00 +21°C° 0 mm 1 mps 592 mmHg 64%
    10:00 +23°C° 0 mm 2 mps 593 mmHg 58%
    11:00 +23°C° 0.1 mm 2 mps 593 mmHg 58%
    12:00 +24°C° 0.1 mm 2 mps 593 mmHg 59%
    13:00 +24°C° 0.1 mm 2 mps 592 mmHg 59%
    14:00 +24°C° 0.5 mm 2 mps 592 mmHg 63%
    15:00 +23°C° 0.5 mm 2 mps 591 mmHg 67%
    16:00 +23°C° 0.5 mm 2 mps 591 mmHg 71%
    17:00 +20°C° 0.8 mm 2 mps 590 mmHg 78%
    18:00 +20°C° 0.8 mm 1 mps 590 mmHg 84%
    19:00 +18°C° 0.8 mm 1 mps 590 mmHg 90%
    20:00 +18°C° 0.4 mm 1 mps 590 mmHg 89%
    21:00 +16°C° 0.4 mm 1 mps 590 mmHg 88%
    22:00 +16°C° 0.4 mm 1 mps 591 mmHg 87%
    23:00 +16°C° 0.2 mm 1 mps 590 mmHg 86%

    11 April, Saturday

    Time Temperature Precipitation Wind Pressure Humidity
    00:00 +15°C° 0.2 mm 1 mps 590 mmHg 85%
    01:00 +15°C° 0.2 mm 1 mps 590 mmHg 84%
    02:00 +15°C° 0.1 mm 1 mps 590 mmHg 84%
    03:00 +15°C° 0.1 mm 1 mps 590 mmHg 85%
    04:00 +14°C° 0.1 mm 1 mps 589 mmHg 85%
    05:00 +15°C° 0 mm 1 mps 590 mmHg 84%
    06:00 +16°C° 0 mm 1 mps 591 mmHg 83%
    07:00 +16°C° 0 mm 1 mps 591 mmHg 81%
    08:00 +19°C° 0.1 mm 1 mps 592 mmHg 76%
    09:00 +21°C° 0.1 mm 1 mps 593 mmHg 70%
    10:00 +22°C° 0.1 mm 1 mps 594 mmHg 65%
    11:00 +23°C° 0.3 mm 1 mps 593 mmHg 65%
    12:00 +23°C° 0.3 mm 2 mps 593 mmHg 64%
    13:00 +24°C° 0.3 mm 2 mps 593 mmHg 64%
    14:00 +23°C° 0.9 mm 2 mps 592 mmHg 68%
    15:00 +21°C° 0.9 mm 2 mps 591 mmHg 72%
    16:00 +22°C° 0.9 mm 1 mps 591 mmHg 75%
    17:00 +21°C° 0.9 mm 1 mps 590 mmHg 80%
    18:00 +19°C° 0.9 mm 1 mps 590 mmHg 84%
    19:00 +18°C° 0.9 mm 1 mps 590 mmHg 89%
    20:00 +16°C° 0.3 mm 1 mps 590 mmHg 88%
    21:00 +16°C° 0.3 mm 2 mps 590 mmHg 87%
    22:00 +15°C° 0.3 mm 2 mps 591 mmHg 86%
    23:00 +15°C° 0 mm 2 mps 590 mmHg 83%
    Show more